| time (UTC) | temp C | wind direction | speed KPH | gust KPH | rain 1hr cm | rain 24hr cm | rain mn cm | humidity % | barometer mb |
| 20260906191649 | 26 | 157 | 16.1 | 25.7 | 0.00 | 0.00 | 0.00 | 70 | 1018.5 |
| 20260906191149 | 26 | 138 | 14.5 | 27.4 | 0.00 | 0.00 | 0.00 | 71 | 1018.6 |
| 20260906190648 | 26 | 116 | 19.3 | 27.4 | 0.00 | 0.00 | 0.00 | 70 | 1018.5 |
| 20260906190148 | 26 | 128 | 20.9 | 25.7 | 0.00 | 0.00 | 0.00 | 68 | 1018.5 |
| 20260906185649 | 27 | 154 | 14.5 | 27.4 | 0.00 | 0.00 | 0.00 | 68 | 1018.3 |
| 20260906185150 | 26 | 120 | 20.9 | 27.4 | 0.00 | 0.00 | 0.00 | 70 | 1018.4 |
| 20260906184648 | 26 | 121 | 22.5 | 27.4 | 0.00 | 0.00 | 0.00 | 70 | 1018.6 |
| 20260906184147 | 26 | 138 | 19.3 | 29.0 | 0.00 | 0.00 | 0.00 | 71 | 1018.6 |
| 20260906183647 | 26 | 125 | 19.3 | 29.0 | 0.00 | 0.00 | 0.00 | 70 | 1018.7 |
| 20260906183148 | 26 | 140 | 19.3 | 29.0 | 0.00 | 0.00 | 0.00 | 70 | 1018.8 |
| 20260906182648 | 26 | 82 | 19.3 | 25.7 | 0.00 | 0.00 | 0.00 | 68 | 1018.7 |
| 20260906182146 | 27 | 93 | 17.7 | 25.7 | 0.00 | 0.00 | 0.00 | 68 | 1018.6 |
| 20260906181925 | 26 | 87 | 14.5 | 27.4 | 0.00 | 0.00 | 0.00 | 71 | 1018.6 |
| 20260906181144 | 27 | 117 | 19.3 | 27.4 | 0.00 | 0.00 | 0.00 | 70 | 1018.7 |
| 20260906180645 | 26 | 111 | 17.7 | 25.7 | 0.00 | 0.00 | 0.00 | 70 | 1018.6 |
| 20260906180140 | 27 | 151 | 12.9 | 25.7 | 0.00 | 0.00 | 0.00 | 68 | 1018.5 |
| 20260906175640 | 26 | 158 | 17.7 | 25.7 | 0.00 | 0.00 | 0.00 | 70 | 1018.7 |
| 20260906175141 | 26 | 99 | 17.7 | 25.7 | 0.00 | 0.00 | 0.00 | 71 | 1018.6 |
| 20260906174639 | 26 | 130 | 11.3 | 20.9 | 0.00 | 0.00 | 0.00 | 71 | 1018.7 |
| 20260906174140 | 26 | 118 | 17.7 | 25.7 | 0.00 | 0.00 | 0.00 | 71 | 1018.5 |
| 20260906173639 | 26 | 144 | 11.3 | 25.7 | 0.00 | 0.00 | 0.00 | 68 | 1018.6 |
| 20260906173159 | 27 | 141 | 12.9 | 22.5 | 0.00 | 0.00 | 0.00 | 70 | 1018.5 |
| 20260906172137 | 27 | 145 | 12.9 | 29.0 | 0.00 | 0.00 | 0.00 | 70 | 1018.7 |
| 20260906171920 | 26 | 128 | 19.3 | 29.0 | 0.00 | 0.00 | 0.00 | 70 | 1018.7 |
| 20260906171136 | 26 | 118 | 14.5 | 24.1 | 0.00 | 0.00 | 0.00 | 71 | 1018.7 |
| 20260906170635 | 26 | 162 | 14.5 | 25.7 | 0.00 | 0.00 | 0.00 | 72 | 1018.7 |
| 20260906170136 | 26 | 193 | 16.1 | 25.7 | 0.00 | 0.00 | 0.00 | 71 | 1018.9 |
| 20260906165632 | 26 | 133 | 12.9 | 22.5 | 0.00 | 0.00 | 0.00 | 72 | 1019.0 |
| 20260906165133 | 26 | 169 | 16.1 | 22.5 | 0.00 | 0.00 | 0.00 | 73 | 1019.0 |
| 20260906164633 | 25 | 162 | 17.7 | 22.5 | 0.00 | 0.00 | 0.00 | 73 | 1019.0 |
| 20260906164135 | 25 | 190 | 12.9 | 22.5 | 0.00 | 0.00 | 0.00 | 73 | 1019.0 |
| 20260906163910 | 25 | 137 | 14.5 | 22.5 | 0.00 | 0.00 | 0.00 | 73 | 1018.9 |
| 20260906163130 | 25 | 159 | 11.3 | 24.1 | 0.00 | 0.00 | 0.00 | 74 | 1019.1 |
| 20260906162630 | 25 | 134 | 12.9 | 25.7 | 0.00 | 0.00 | 0.00 | 74 | 1018.9 |
| 20260906162131 | 25 | 130 | 19.3 | 25.7 | 0.00 | 0.00 | 0.00 | 74 | 1018.9 |
| 20260906161630 | 25 | 131 | 16.1 | 25.7 | 0.00 | 0.00 | 0.00 | 74 | 1019.1 |
| 20260906161129 | 25 | 144 | 17.7 | 27.4 | 0.00 | 0.00 | 0.00 | 74 | 1019.2 |
| 20260906160912 | 25 | 172 | 17.7 | 27.4 | 0.00 | 0.00 | 0.00 | 75 | 1019.3 |
| 20260906160130 | 24 | 147 | 14.5 | 22.5 | 0.00 | 0.00 | 0.00 | 76 | 1019.4 |
| 20260906155631 | 24 | 189 | 12.9 | 20.9 | 0.00 | 0.00 | 0.00 | 76 | 1019.4 |
| 20260906155130 | 24 | 180 | 9.7 | 20.9 | 0.00 | 0.00 | 0.00 | 78 | 1019.4 |
| 20260906154628 | 23 | 155 | 11.3 | 24.1 | 0.00 | 0.00 | 0.00 | 79 | 1019.4 |
| 20260906154128 | 23 | 186 | 16.1 | 24.1 | 0.00 | 0.00 | 0.00 | 79 | 1019.6 |
| 20260906153909 | 23 | 134 | 6.4 | 20.9 | 0.00 | 0.00 | 0.00 | 81 | 1019.6 |
| 20260906153129 | 23 | 133 | 9.7 | 20.9 | 0.00 | 0.00 | 0.00 | 80 | 1019.5 |
| 20260906152628 | 23 | 131 | 11.3 | 20.9 | 0.00 | 0.00 | 0.00 | 83 | 1019.5 |
| 20260906152127 | 22 | 144 | 16.1 | 20.9 | 0.00 | 0.00 | 0.00 | 83 | 1019.5 |
| 20260906151910 | 22 | 145 | 11.3 | 19.3 | 0.00 | 0.00 | 0.00 | 84 | 1019.5 |
| 20260906151126 | 22 | 152 | 11.3 | 19.3 | 0.00 | 0.00 | 0.00 | 87 | 1019.6 |
| 20260906150626 | 21 | 130 | 9.7 | 19.3 | 0.00 | 0.00 | 0.00 | 89 | 1019.6 |
| 20260906150126 | 21 | 148 | 9.7 | 17.7 | 0.00 | 0.00 | 0.00 | 90 | 1019.6 |
| 20260906145625 | 21 | 135 | 11.3 | 17.7 | 0.00 | 0.00 | 0.00 | 91 | 1019.7 |
| 20260906145407 | 21 | 111 | 8.0 | 20.9 | 0.00 | 0.00 | 0.00 | 93 | 1019.7 |
| 20260906144624 | 20 | 130 | 9.7 | 20.9 | 0.00 | 0.00 | 0.00 | 93 | 1019.6 |
| 20260906144123 | 20 | 128 | 6.4 | 17.7 | 0.00 | 0.00 | 0.00 | 94 | 1019.5 |
| 20260906143624 | 20 | 116 | 9.7 | 17.7 | 0.00 | 0.00 | 0.00 | 94 | 1019.5 |
| 20260906143402 | 20 | 106 | 9.7 | 19.3 | 0.00 | 0.00 | 0.00 | 94 | 1019.6 |
| 20260906142621 | 20 | 133 | 11.3 | 19.3 | 0.00 | 0.00 | 0.00 | 94 | 1019.6 |
| 20260906142121 | 20 | 144 | 14.5 | 19.3 | 0.00 | 0.00 | 0.00 | 94 | 1019.6 |
| 20260906141621 | 20 | 128 | 9.7 | 16.1 | 0.00 | 0.00 | 0.00 | 96 | 1019.5 |
| 20260906141356 | 19 | 151 | 12.9 | 16.1 | 0.00 | 0.00 | 0.00 | 94 | 1019.5 |
| 20260906140619 | 19 | 131 | 8.0 | 16.1 | 0.00 | 0.00 | 0.00 | 96 | 1019.6 |
| 20260906140119 | 19 | 125 | 8.0 | 16.1 | 0.00 | 0.00 | 0.00 | 94 | 1019.7 |
| 20260906135616 | 19 | 110 | 6.4 | 17.7 | 0.00 | 0.00 | 0.00 | 96 | 1019.7 |
| 20260906135117 | 18 | 118 | 8.0 | 19.3 | 0.00 | 0.00 | 0.00 | 96 | 1019.7 |
| 20260906134618 | 18 | 134 | 11.3 | 19.3 | 0.00 | 0.00 | 0.00 | 96 | 1019.6 |
| 20260906134115 | 18 | 128 | 9.7 | 17.7 | 0.00 | 0.00 | 0.00 | 96 | 1019.6 |
| 20260906133615 | 18 | 145 | 9.7 | 17.7 | 0.00 | 0.00 | 0.00 | 96 | 1019.6 |
| 20260906133114 | 18 | 127 | 8.0 | 17.7 | 0.00 | 0.00 | 0.00 | 96 | 1019.5 |
| 20260906132851 | 18 | 154 | 6.4 | 17.7 | 0.00 | 0.00 | 0.00 | 94 | 1019.5 |
| 20260906132114 | 18 | 141 | 9.7 | 17.7 | 0.00 | 0.00 | 0.00 | 96 | 1019.5 |
| 20260906131614 | 18 | 107 | 9.7 | 16.1 | 0.00 | 0.00 | 0.00 | 96 | 1019.5 |
| 20260906131353 | 18 | 140 | 9.7 | 19.3 | 0.00 | 0.00 | 0.00 | 96 | 1019.5 |
| 20260906130614 | 18 | 151 | 12.9 | 19.3 | 0.00 | 0.00 | 0.00 | 96 | 1019.4 |
| 20260906130112 | 18 | 109 | 12.9 | 22.5 | 0.00 | 0.00 | 0.00 | 94 | 1019.3 |
| 20260906125613 | 18 | 135 | 14.5 | 22.5 | 0.00 | 0.00 | 0.00 | 94 | 1019.1 |
| 20260906125110 | 18 | 113 | 11.3 | 19.3 | 0.00 | 0.00 | 0.00 | 94 | 1019.2 |
| 20260906124609 | 17 | 110 | 14.5 | 20.9 | 0.00 | 0.00 | 0.00 | 94 | 1019.3 |
| 20260906124109 | 17 | 116 | 12.9 | 20.9 | 0.00 | 0.00 | 0.00 | 94 | 1019.3 |
| 20260906123609 | 17 | 103 | 14.5 | 20.9 | 0.00 | 0.00 | 0.00 | 94 | 1019.2 |
| 20260906123347 | 17 | 103 | 17.7 | 20.9 | 0.00 | 0.00 | 0.00 | 94 | 1019.2 |
| 20260906122602 | 17 | 109 | 14.5 | 19.3 | 0.00 | 0.00 | 0.00 | 94 | 1019.1 |
| 20260906122101 | 17 | 109 | 11.3 | 16.1 | 0.00 | 0.00 | 0.00 | 94 | 1019.1 |
| 20260906121601 | 17 | 116 | 9.7 | 16.1 | 0.00 | 0.00 | 0.00 | 94 | 1019.0 |
| 20260906121100 | 17 | 97 | 9.7 | 16.1 | 0.00 | 0.00 | 0.00 | 94 | 1018.9 |
| 20260906120558 | 17 | 99 | 9.7 | 16.1 | 0.00 | 0.00 | 0.00 | 94 | 1018.9 |
| 20260906120058 | 17 | 110 | 11.3 | 16.1 | 0.00 | 0.00 | 0.00 | 94 | 1018.9 |
| 20260906115559 | 17 | 142 | 11.3 | 20.9 | 0.00 | 0.00 | 0.00 | 94 | 1018.9 |
| 20260906115107 | 17 | 117 | 12.9 | 20.9 | 0.00 | 0.00 | 0.00 | 94 | 1018.9 |
| 20260906114605 | 17 | 104 | 14.5 | 20.9 | 0.00 | 0.00 | 0.00 | 94 | 1018.8 |
| 20260906114059 | 17 | 103 | 12.9 | 20.9 | 0.00 | 0.00 | 0.00 | 94 | 1018.9 |
| 20260906113600 | 17 | 123 | 11.3 | 16.1 | 0.00 | 0.00 | 0.00 | 94 | 1018.9 |
| 20260906113120 | 17 | 99 | 9.7 | 14.5 | 0.00 | 0.00 | 0.00 | 94 | 1019.1 |
| 20260906112057 | 17 | 118 | 6.4 | 9.7 | 0.00 | 0.00 | 0.00 | 94 | 1019.2 |
| 20260906111558 | 17 | 109 | 6.4 | 9.7 | 0.00 | 0.00 | 0.00 | 94 | 1019.0 |
| 20260906111331 | 17 | 104 | 4.8 | 9.7 | 0.00 | 0.00 | 0.00 | 94 | 1019.0 |
| 20260906110556 | 17 | 130 | 4.8 | 9.7 | 0.00 | 0.00 | 0.00 | 94 | 1018.9 |
| 20260906110329 | 17 | 124 | 6.4 | 11.3 | 0.00 | 0.00 | 0.00 | 94 | 1018.9 |
| 20260906105555 | 17 | 103 | 6.4 | 14.5 | 0.00 | 0.00 | 0.00 | 94 | 1018.9 |
| 20260906105053 | 17 | 130 | 8.0 | 14.5 | 0.00 | 0.00 | 0.00 | 94 | 1018.8 |
| 20260906104553 | 17 | 114 | 8.0 | 11.3 | 0.00 | 0.00 | 0.00 | 94 | 1018.8 |
| 20260906104050 | 17 | 90 | 9.7 | 11.3 | 0.00 | 0.00 | 0.00 | 94 | 1018.8 |
| 20260906103552 | 17 | 117 | 6.4 | 9.7 | 0.00 | 0.00 | 0.00 | 94 | 1018.9 |
| 20260906103050 | 17 | 116 | 6.4 | 9.7 | 0.00 | 0.00 | 0.00 | 94 | 1019.0 |
| 20260906102549 | 17 | 92 | 4.8 | 9.7 | 0.00 | 0.00 | 0.00 | 94 | 1019.0 |
| 20260906102049 | 17 | 104 | 6.4 | 9.7 | 0.00 | 0.00 | 0.00 | 94 | 1019.0 |
| 20260906101548 | 17 | 92 | 8.0 | 8.0 | 0.00 | 0.00 | 0.00 | 94 | 1018.9 |
| 20260906101047 | 17 | 89 | 6.4 | 8.0 | 0.00 | 0.00 | 0.00 | 94 | 1018.9 |
| 20260906100818 | 17 | 102 | 6.4 | 8.0 | 0.00 | 0.00 | 0.00 | 94 | 1018.8 |
| 20260906100047 | 17 | 96 | 6.4 | 9.7 | 0.00 | 0.00 | 0.00 | 94 | 1018.7 |
| 20260906095548 | 17 | 116 | 6.4 | 9.7 | 0.00 | 0.00 | 0.00 | 94 | 1018.3 |
| 20260906095047 | 17 | 121 | 6.4 | 11.3 | 0.00 | 0.00 | 0.00 | 94 | 1018.2 |
| 20260906094547 | 17 | 144 | 6.4 | 14.5 | 0.00 | 0.00 | 0.00 | 94 | 1018.1 |
| 20260906094320 | 17 | 113 | 8.0 | 14.5 | 0.00 | 0.00 | 0.00 | 94 | 1018.0 |
| 20260906093546 | 17 | 120 | 11.3 | 16.1 | 0.00 | 0.00 | 0.00 | 93 | 1018.0 |
| 20260906093318 | 17 | 134 | 9.7 | 16.1 | 0.00 | 0.00 | 0.00 | 93 | 1017.9 |
| 20260906092545 | 17 | 107 | 9.7 | 16.1 | 0.00 | 0.00 | 0.00 | 93 | 1017.9 |
| 20260906092044 | 17 | 97 | 11.3 | 16.1 | 0.00 | 0.00 | 0.00 | 93 | 1018.0 |
| 20260906091815 | 17 | 99 | 11.3 | 19.3 | 0.00 | 0.00 | 0.00 | 93 | 1018.0 |
| 20260906091043 | 17 | 99 | 12.9 | 20.9 | 0.00 | 0.00 | 0.00 | 93 | 1018.0 |
| 20260906090543 | 17 | 99 | 12.9 | 20.9 | 0.00 | 0.00 | 0.00 | 93 | 1018.0 |
| 20260906090042 | 17 | 93 | 14.5 | 22.5 | 0.00 | 0.00 | 0.00 | 93 | 1018.0 |
| 20260906085814 | 17 | 87 | 14.5 | 22.5 | 0.00 | 0.00 | 0.00 | 93 | 1018.0 |
| 20260906085041 | 17 | 89 | 11.3 | 17.7 | 0.00 | 0.00 | 0.00 | 93 | 1018.1 |
| 20260906084538 | 17 | 83 | 11.3 | 17.7 | 0.00 | 0.00 | 0.00 | 93 | 1018.1 |
| 20260906084311 | 17 | 85 | 12.9 | 17.7 | 0.00 | 0.00 | 0.00 | 93 | 1018.1 |
| 20260906083536 | 17 | 99 | 11.3 | 16.1 | 0.00 | 0.00 | 0.00 | 93 | 1018.2 |
| 20260906083036 | 17 | 118 | 9.7 | 14.5 | 0.00 | 0.00 | 0.00 | 93 | 1018.2 |
| 20260906082536 | 17 | 76 | 8.0 | 14.5 | 0.00 | 0.00 | 0.00 | 93 | 1018.3 |
| 20260906082036 | 17 | 111 | 8.0 | 14.5 | 0.00 | 0.00 | 0.00 | 93 | 1018.2 |
| 20260906081536 | 17 | 89 | 8.0 | 14.5 | 0.00 | 0.00 | 0.00 | 93 | 1018.2 |
| 20260906081034 | 17 | 72 | 8.0 | 11.3 | 0.00 | 0.00 | 0.00 | 93 | 1018.3 |
| 20260906080535 | 17 | 79 | 6.4 | 9.7 | 0.00 | 0.00 | 0.00 | 93 | 1018.3 |
| 20260906080304 | 17 | 86 | 6.4 | 11.3 | 0.00 | 0.00 | 0.00 | 93 | 1018.2 |
| 20260906075532 | 17 | 59 | 4.8 | 11.3 | 0.00 | 0.00 | 0.00 | 93 | 1018.2 |
| 20260906075031 | 17 | 82 | 6.4 | 11.3 | 0.00 | 0.00 | 0.00 | 93 | 1018.1 |
| 20260906074530 | 17 | 69 | 6.4 | 9.7 | 0.00 | 0.00 | 0.00 | 92 | 1018.3 |
| 20260906074302 | 17 | 41 | 4.8 | 8.0 | 0.00 | 0.00 | 0.00 | 92 | 1018.4 |
| 20260906073530 | 17 | 68 | 6.4 | 8.0 | 0.00 | 0.00 | 0.00 | 92 | 1018.4 |
| 20260906073030 | 17 | 56 | 4.8 | 9.7 | 0.00 | 0.00 | 0.00 | 92 | 1018.3 |
| 20260906072528 | 17 | 85 | 4.8 | 9.7 | 0.00 | 0.00 | 0.00 | 92 | 1018.5 |
| 20260906072030 | 17 | 71 | 6.4 | 9.7 | 0.00 | 0.00 | 0.00 | 92 | 1018.5 |
| 20260906071800 | 17 | 120 | 6.4 | 14.5 | 0.00 | 0.00 | 0.00 | 92 | 1018.5 |
| 20260906071030 | 17 | 83 | 9.7 | 14.5 | 0.00 | 0.00 | 0.00 | 92 | 1018.4 |
| 20260906070805 | 17 | 94 | 9.7 | 14.5 | 0.00 | 0.00 | 0.00 | 92 | 1018.5 |
| 20260906070302 | 17 | 93 | 8.0 | 11.3 | 0.00 | 0.00 | 0.00 | 92 | 1018.6 |
| 20260906065528 | 17 | 79 | 6.4 | 11.3 | 0.00 | 0.00 | 0.00 | 92 | 1018.7 |
| 20260906065030 | 17 | 85 | 6.4 | 9.7 | 0.00 | 0.00 | 0.00 | 92 | 1018.8 |
| 20260906064529 | 17 | 59 | 6.4 | 9.7 | 0.00 | 0.00 | 0.00 | 92 | 1018.8 |
| 20260906064029 | 17 | 68 | 4.8 | 9.7 | 0.00 | 0.00 | 0.00 | 92 | 1018.8 |
| 20260906063527 | 17 | 48 | 3.2 | 9.7 | 0.00 | 0.00 | 0.00 | 92 | 1018.9 |
| 20260906063027 | 17 | 76 | 4.8 | 9.7 | 0.00 | 0.00 | 0.00 | 91 | 1018.9 |
| 20260906062525 | 17 | 73 | 3.2 | 11.3 | 0.00 | 0.00 | 0.00 | 91 | 1018.8 |
| 20260906062025 | 17 | 94 | 6.4 | 11.3 | 0.00 | 0.00 | 0.00 | 91 | 1018.7 |
| 20260906061758 | 17 | 59 | 8.0 | 11.3 | 0.00 | 0.00 | 0.00 | 91 | 1018.6 |
| 20260906061325 | 17 | 76 | 8.0 | 11.3 | 0.00 | 0.00 | 0.00 | 91 | 1018.6 |
| 20260906060024 | 18 | 99 | 6.4 | 11.3 | 0.00 | 0.00 | 0.00 | 91 | 1018.6 |
| 20260906055524 | 18 | 86 | 6.4 | 9.7 | 0.00 | 0.00 | 0.00 | 91 | 1018.6 |
| 20260906055024 | 18 | 94 | 8.0 | 11.3 | 0.00 | 0.00 | 0.00 | 91 | 1018.6 |
| 20260906054548 | 18 | 100 | 9.7 | 11.3 | 0.00 | 0.00 | 0.00 | 91 | 1018.7 |
| 20260906053521 | 18 | 103 | 8.0 | 16.1 | 0.00 | 0.00 | 0.00 | 90 | 1018.6 |
| 20260906053021 | 18 | 103 | 11.3 | 16.1 | 0.00 | 0.00 | 0.00 | 90 | 1018.5 |
| 20260906052520 | 18 | 120 | 11.3 | 16.1 | 0.00 | 0.00 | 0.00 | 90 | 1018.4 |
| 20260906052023 | 18 | 104 | 9.7 | 16.1 | 0.00 | 0.00 | 0.00 | 90 | 1018.5 |
| 20260906051517 | 18 | 109 | 11.3 | 16.1 | 0.00 | 0.00 | 0.00 | 90 | 1018.3 |
| 20260906051016 | 18 | 96 | 11.3 | 16.1 | 0.00 | 0.00 | 0.00 | 90 | 1018.3 |
| 20260906050516 | 18 | 110 | 12.9 | 17.7 | 0.00 | 0.00 | 0.00 | 90 | 1018.3 |
| 20260906050258 | 18 | 116 | 12.9 | 17.7 | 0.00 | 0.00 | 0.00 | 90 | 1018.3 |
| 20260906045514 | 18 | 93 | 11.3 | 16.1 | 0.00 | 0.00 | 0.00 | 90 | 1018.4 |
| 20260906045015 | 18 | 104 | 9.7 | 16.1 | 0.00 | 0.00 | 0.00 | 89 | 1018.4 |
| 20260906044515 | 18 | 117 | 9.7 | 16.1 | 0.00 | 0.00 | 0.00 | 89 | 1018.6 |
| 20260906044042 | 18 | 106 | 11.3 | 16.1 | 0.00 | 0.00 | 0.00 | 89 | 1018.5 |
| 20260906043020 | 18 | 107 | 9.7 | 14.5 | 0.00 | 0.00 | 0.00 | 89 | 1018.6 |
| 20260906042519 | 18 | 96 | 9.7 | 17.7 | 0.00 | 0.00 | 0.00 | 88 | 1018.6 |
| 20260906042024 | 19 | 90 | 11.3 | 17.7 | 0.00 | 0.00 | 0.00 | 89 | 1018.6 |
| 20260906041518 | 19 | 96 | 11.3 | 17.7 | 0.00 | 0.00 | 0.00 | 88 | 1018.4 |
| 20260906041018 | 19 | 107 | 9.7 | 17.7 | 0.00 | 0.00 | 0.00 | 88 | 1018.4 |
| 20260906040757 | 19 | 89 | 12.9 | 16.1 | 0.00 | 0.00 | 0.00 | 89 | 1018.5 |
| 20260906040005 | 19 | 99 | 11.3 | 14.5 | 0.00 | 0.00 | 0.00 | 89 | 1018.4 |
| 20260906035517 | 19 | 92 | 12.9 | 14.5 | 0.00 | 0.00 | 0.00 | 89 | 1018.4 |
| 20260906035253 | 19 | 107 | 9.7 | 14.5 | 0.00 | 0.00 | 0.00 | 89 | 1018.6 |
| 20260906034518 | 19 | 83 | 6.4 | 14.5 | 0.00 | 0.00 | 0.00 | 89 | 1018.6 |
| 20260906034015 | 19 | 82 | 9.7 | 14.5 | 0.00 | 0.00 | 0.00 | 88 | 1018.6 |
| 20260906033500 | 19 | 104 | 8.0 | 16.1 | 0.00 | 0.00 | 0.00 | 88 | 1018.6 |
| 20260906033000 | 19 | 82 | 9.7 | 16.1 | 0.00 | 0.00 | 0.00 | 88 | 1018.5 |
| 20260906032459 | 19 | 99 | 12.9 | 16.1 | 0.00 | 0.00 | 0.00 | 88 | 1018.5 |
| 20260906032000 | 19 | 90 | 11.3 | 16.1 | 0.00 | 0.00 | 0.00 | 89 | 1018.5 |
| 20260906031456 | 19 | 100 | 11.3 | 16.1 | 0.00 | 0.00 | 0.00 | 89 | 1018.5 |
| 20260906030954 | 19 | 106 | 9.7 | 14.5 | 0.00 | 0.00 | 0.00 | 89 | 1018.6 |
| 20260906030735 | 18 | 94 | 8.0 | 14.5 | 0.00 | 0.00 | 0.00 | 90 | 1018.7 |
| 20260906025950 | 18 | 96 | 9.7 | 14.5 | 0.00 | 0.00 | 0.00 | 90 | 1018.7 |
| 20260906025511 | 18 | 100 | 9.7 | 11.3 | 0.00 | 0.00 | 0.00 | 90 | 1018.6 |
| 20260906024447 | 18 | 86 | 6.4 | 9.7 | 0.00 | 0.00 | 0.00 | 90 | 1018.7 |
| 20260906023943 | 18 | 89 | 6.4 | 9.7 | 0.00 | 0.00 | 0.00 | 90 | 1018.8 |
| 20260906023441 | 18 | 80 | 8.0 | 9.7 | 0.00 | 0.00 | 0.00 | 90 | 1018.9 |
| 20260906022941 | 18 | 90 | 6.4 | 9.7 | 0.00 | 0.00 | 0.00 | 90 | 1018.7 |
| 20260906022438 | 18 | 69 | 6.4 | 9.7 | 0.00 | 0.00 | 0.00 | 90 | 1018.7 |
| 20260906021938 | 18 | 71 | 6.4 | 9.7 | 0.00 | 0.00 | 0.00 | 89 | 1018.7 |
| 20260906021435 | 18 | 82 | 6.4 | 9.7 | 0.00 | 0.00 | 0.00 | 89 | 1018.7 |
| 20260906020936 | 18 | 55 | 4.8 | 6.4 | 0.00 | 0.00 | 0.00 | 89 | 1018.8 |
| 20260906020434 | 18 | 44 | 3.2 | 6.4 | 0.00 | 0.00 | 0.00 | 89 | 1018.7 |
| 20260906020218 | 18 | 35 | 4.8 | 6.4 | 0.00 | 0.00 | 0.00 | 89 | 1018.6 |
| 20260906015716 | 18 | 20 | 4.8 | 6.4 | 0.00 | 0.00 | 0.00 | 89 | 1018.6 |
| 20260906015215 | 18 | 16 | 4.8 | 6.4 | 0.00 | 0.00 | 0.00 | 89 | 1018.4 |
| 20260906014433 | 18 | 23 | 4.8 | 6.4 | 0.00 | 0.00 | 0.00 | 88 | 1018.3 |
| 20260906013932 | 18 | 8 | 3.2 | 4.8 | 0.00 | 0.00 | 0.00 | 87 | 1018.2 |
| 20260906013432 | 19 | 44 | 3.2 | 6.4 | 0.00 | 0.00 | 0.00 | 88 | 1018.1 |
| 20260906012931 | 19 | 39 | 3.2 | 6.4 | 0.00 | 0.00 | 0.00 | 88 | 1017.9 |
| 20260906012431 | 19 | 38 | 6.4 | 6.4 | 0.00 | 0.00 | 0.00 | 85 | 1017.6 |
| 20260906011931 | 20 | 42 | 3.2 | 4.8 | 0.00 | 0.00 | 0.00 | 85 | 1017.5 |
| 20260906011432 | 20 | 80 | 3.2 | 4.8 | 0.00 | 0.00 | 0.00 | 85 | 1017.3 |
| 20260906010930 | 20 | 80 | 3.2 | 4.8 | 0.00 | 0.00 | 0.00 | 84 | 1017.2 |
| 20260906010429 | 20 | 80 | 1.6 | 4.8 | 0.00 | 0.00 | 0.00 | 84 | 1017.2 |
| 20260906005930 | 20 | 80 | 3.2 | 4.8 | 0.00 | 0.00 | 0.00 | 84 | 1017.1 |
| 20260906005718 | 20 | 68 | 4.8 | 4.8 | 0.00 | 0.00 | 0.00 | 84 | 1017.0 |
| 20260906005213 | 20 | 71 | 3.2 | 6.4 | 0.00 | 0.00 | 0.00 | 83 | 1016.9 |
| 20260906004430 | 21 | 92 | 6.4 | 6.4 | 0.00 | 0.00 | 0.00 | 82 | 1016.7 |
| 20260906004212 | 21 | 104 | 6.4 | 8.0 | 0.00 | 0.00 | 0.00 | 81 | 1016.7 |
| 20260906003713 | 21 | 99 | 3.2 | 8.0 | 0.00 | 0.00 | 0.00 | 80 | 1016.7 |
| 20260906002929 | 21 | 109 | 6.4 | 9.7 | 0.00 | 0.00 | 0.00 | 79 | 1016.6 |
| 20260906002428 | 22 | 93 | 6.4 | 11.3 | 0.00 | 0.00 | 0.00 | 78 | 1016.6 |
| 20260906001929 | 22 | 104 | 9.7 | 17.7 | 0.00 | 0.00 | 0.00 | 76 | 1016.6 |
| 20260906001427 | 22 | 118 | 11.3 | 17.7 | 0.00 | 0.00 | 0.00 | 76 | 1016.4 |
| 20260906000927 | 22 | 102 | 11.3 | 19.3 | 0.00 | 0.00 | 0.00 | 75 | 1016.2 |
| 20260906000426 | 22 | 107 | 12.9 | 19.3 | 0.00 | 0.00 | 0.00 | 75 | 1016.2 |
| 20260905235925 | 22 | 138 | 12.9 | 20.9 | 0.00 | 0.00 | 0.00 | 74 | 1016.1 |
| 20260905235425 | 23 | 113 | 16.1 | 22.5 | 0.00 | 0.00 | 0.00 | 74 | 1016.0 |
| 20260905234920 | 23 | 109 | 17.7 | 22.5 | 0.00 | 0.00 | 0.00 | 74 | 1016.0 |
| 20260905234421 | 23 | 116 | 16.1 | 27.4 | 0.00 | 0.00 | 0.00 | 73 | 1016.0 |
| 20260905233921 | 23 | 99 | 16.1 | 29.0 | 0.00 | 0.00 | 0.00 | 73 | 1015.9 |
| 20260905233704 | 23 | 93 | 20.9 | 29.0 | 0.00 | 0.00 | 0.00 | 73 | 1016.0 |
| 20260905232918 | 23 | 99 | 17.7 | 25.7 | 0.00 | 0.00 | 0.00 | 73 | 1015.9 |
| 20260905232418 | 23 | 117 | 17.7 | 25.7 | 0.00 | 0.00 | 0.00 | 72 | 1015.8 |
| 20260905231919 | 24 | 87 | 20.9 | 25.7 | 0.00 | 0.00 | 0.00 | 72 | 1015.8 |
| 20260905231418 | 24 | 96 | 12.9 | 24.1 | 0.00 | 0.00 | 0.00 | 72 | 1015.8 |
| 20260905230919 | 24 | 107 | 16.1 | 22.5 | 0.00 | 0.00 | 0.00 | 71 | 1015.8 |
| 20260905230702 | 24 | 87 | 16.1 | 24.1 | 0.00 | 0.00 | 0.00 | 70 | 1016.0 |
| 20260905225917 | 24 | 123 | 16.1 | 24.1 | 0.00 | 0.00 | 0.00 | 70 | 1015.9 |
| 20260905225417 | 25 | 111 | 16.1 | 25.7 | 0.00 | 0.00 | 0.00 | 70 | 1016.0 |
| 20260905224916 | 25 | 93 | 17.7 | 25.7 | 0.00 | 0.00 | 0.00 | 70 | 1016.1 |
| 20260905224416 | 25 | 97 | 19.3 | 24.1 | 0.00 | 0.00 | 0.00 | 68 | 1016.3 |
| 20260905224207 | 25 | 93 | 17.7 | 25.7 | 0.00 | 0.00 | 0.00 | 68 | 1016.5 |
| 20260905223418 | 25 | 109 | 17.7 | 25.7 | 0.00 | 0.00 | 0.00 | 68 | 1016.5 |
| 20260905222918 | 25 | 103 | 19.3 | 24.1 | 0.00 | 0.00 | 0.00 | 67 | 1016.6 |
| 20260905222417 | 25 | 113 | 12.9 | 24.1 | 0.00 | 0.00 | 0.00 | 68 | 1016.5 |
| 20260905221910 | 25 | 104 | 17.7 | 24.1 | 0.00 | 0.00 | 0.00 | 67 | 1016.4 |
| 20260905221650 | 26 | 59 | 14.5 | 20.9 | 0.00 | 0.00 | 0.00 | 68 | 1016.4 |
| 20260905220902 | 26 | 94 | 12.9 | 25.7 | 0.00 | 0.00 | 0.00 | 67 | 1016.5 |
| 20260905220404 | 26 | 65 | 14.5 | 25.7 | 0.00 | 0.00 | 0.00 | 66 | 1016.5 |
| 20260905215903 | 26 | 111 | 12.9 | 25.7 | 0.00 | 0.00 | 0.00 | 67 | 1016.5 |
| 20260905215402 | 26 | 73 | 16.1 | 25.7 | 0.00 | 0.00 | 0.00 | 66 | 1016.5 |
| 20260905214903 | 27 | 52 | 16.1 | 25.7 | 0.00 | 0.00 | 0.00 | 65 | 1016.5 |
| 20260905214402 | 26 | 61 | 12.9 | 24.1 | 0.00 | 0.00 | 0.00 | 66 | 1016.6 |
| 20260905213902 | 26 | 85 | 17.7 | 29.0 | 0.00 | 0.00 | 0.00 | 65 | 1016.5 |
| 20260905213402 | 27 | 104 | 17.7 | 29.0 | 0.00 | 0.00 | 0.00 | 64 | 1016.7 |
| 20260905212903 | 27 | 92 | 14.5 | 25.7 | 0.00 | 0.00 | 0.00 | 66 | 1016.6 |
| 20260905212402 | 27 | 137 | 11.3 | 25.7 | 0.00 | 0.00 | 0.00 | 65 | 1016.7 |
| 20260905211902 | 27 | 72 | 16.1 | 25.7 | 0.00 | 0.00 | 0.00 | 66 | 1016.7 |
| 20260905211401 | 27 | 62 | 17.7 | 24.1 | 0.00 | 0.00 | 0.00 | 66 | 1016.8 |
| 20260905210902 | 27 | 121 | 17.7 | 24.1 | 0.00 | 0.00 | 0.00 | 65 | 1016.9 |
| 20260905210402 | 27 | 104 | 12.9 | 22.5 | 0.00 | 0.00 | 0.00 | 66 | 1017.1 |
| 20260905205902 | 27 | 116 | 17.7 | 24.1 | 0.00 | 0.00 | 0.00 | 66 | 1017.2 |
| 20260905205653 | 27 | 100 | 17.7 | 24.1 | 0.00 | 0.00 | 0.00 | 65 | 1017.1 |
| 20260905204901 | 26 | 111 | 19.3 | 24.1 | 0.00 | 0.00 | 0.00 | 67 | 1017.1 |
| 20260905204401 | 27 | 120 | 12.9 | 20.9 | 0.00 | 0.00 | 0.00 | 65 | 1017.2 |
| 20260905204155 | 27 | 96 | 9.7 | 20.9 | 0.00 | 0.00 | 0.00 | 66 | 1017.1 |
| 20260905203359 | 26 | 71 | 11.3 | 20.9 | 0.00 | 0.00 | 0.00 | 65 | 1017.3 |
| 20260905202900 | 26 | 110 | 8.0 | 19.3 | 0.00 | 0.00 | 0.00 | 67 | 1017.3 |
| 20260905202358 | 26 | 117 | 11.3 | 20.9 | 0.00 | 0.00 | 0.00 | 66 | 1017.4 |
| 20260905201858 | 26 | 102 | 12.9 | 20.9 | 0.00 | 0.00 | 0.00 | 67 | 1017.4 |
| 20260905201357 | 26 | 109 | 14.5 | 19.3 | 0.00 | 0.00 | 0.00 | 67 | 1017.5 |
| 20260905200857 | 26 | 73 | 11.3 | 19.3 | 0.00 | 0.00 | 0.00 | 67 | 1017.6 |
| 20260905200356 | 26 | 92 | 11.3 | 19.3 | 0.00 | 0.00 | 0.00 | 66 | 1017.9 |
| 20260905200148 | 26 | 116 | 9.7 | 22.5 | 0.00 | 0.00 | 0.00 | 66 | 1018.0 |
| 20260905195355 | 26 | 128 | 14.5 | 22.5 | 0.00 | 0.00 | 0.00 | 68 | 1018.1 |
| 20260905194857 | 26 | 125 | 9.7 | 19.3 | 0.00 | 0.00 | 0.00 | 70 | 1018.1 |
| 20260905194356 | 26 | 145 | 14.5 | 19.3 | 0.00 | 0.00 | 0.00 | 70 | 1018.2 |
| 20260905193849 | 26 | 100 | 6.4 | 14.5 | 0.00 | 0.00 | 0.00 | 70 | 1018.3 |
| 20260905193637 | 26 | 148 | 8.0 | 14.5 | 0.00 | 0.00 | 0.00 | 68 | 1018.3 |
| 20260905193134 | 25 | 128 | 4.8 | 17.7 | 0.00 | 0.00 | 0.00 | 70 | 1018.4 |
| 20260905192341 | 25 | 138 | 9.7 | 17.7 | 0.00 | 0.00 | 0.00 | 70 | 1018.5 |
| 20260905192134 | 25 | 148 | 11.3 | 17.7 | 0.00 | 0.00 | 0.00 | 70 | 1018.6 |